QPF
0.01 0.01 0.00 0.00 0.01 0.05 0.09 0.09 0.08 0.06 0.04 0.03 0.04 0.03 0.03 0.05 0.06 0.06 0.05 0.04 0.04 0.04 0.04 0.04 0.04 0.03 0.03 0.04 0.05 0.03 0.03 0.03 0.02 0.03 0.05 0.06 0.04 0.03 0.03 0.04 0.04 0.05 0.05
0.01 0.01 0.00 0.01 0.03 0.09 0.12 0.11 0.09 0.06 0.04 0.05 0.05 0.05 0.07 0.08 0.07 0.07 0.06 0.05 0.04 0.04 0.04 0.05 0.04 0.03 0.03 0.03 0.03 0.02 0.02 0.02 0.01 0.01 0.02 0.03 0.03 0.02 0.03 0.04 0.03 0.03 0.04
0.01 0.02 0.01 0.02 0.04 0.06 0.07 0.08 0.08 0.07 0.06 0.06 0.06 0.07 0.07 0.06 0.06 0.06 0.06 0.07 0.07 0.06 0.06 0.06 0.03 0.03 0.03 0.02 0.02 0.02 0.03 0.02 0.02 0.02 0.04 0.04 0.02 0.02 0.02 0.03 0.03 0.03 0.03
0.01 0.02 0.02 0.02 0.03 0.03 0.03 0.03 0.08 0.08 0.06 0.06 0.06 0.07 0.10 0.11 0.07 0.07 0.08 0.09 0.10 0.09 0.08 0.07 0.05 0.03 0.04 0.02 0.01 0.02 0.03 0.03 0.03 0.03 0.05 0.06 0.04 0.03 0.02 0.02 0.01 0.01 0.02
0.01 0.03 0.03 0.03 0.02 0.02 0.03 0.03 0.05 0.06 0.05 0.05 0.07 0.09 0.11 0.09 0.05 0.04 0.04 0.05 0.07 0.07 0.08 0.07 0.07 0.07 0.06 0.05 0.03 0.03 0.03 0.04 0.04 0.05 0.05 0.06 0.06 0.06 0.05 0.04 0.02 0.01 0.02
0.03 0.06 0.03 0.03 0.02 0.02 0.02 0.03 0.03 0.04 0.06 0.06 0.06 0.05 0.04 0.03 0.02 0.02 0.02 0.04 0.05 0.05 0.06 0.07 0.09 0.09 0.07 0.05 0.04 0.05 0.07 0.08 0.07 0.07 0.07 0.09 0.08 0.06 0.06 0.05 0.04 0.04 0.03
0.03 0.07 0.06 0.02 0.02 0.01 0.01 0.02 0.03 0.04 0.06 0.07 0.07 0.06 0.04 0.02 0.02 0.02 0.02 0.03 0.04 0.04 0.05 0.04 0.07 0.06 0.05 0.05 0.06 0.07 0.09 0.10 0.10 0.10 0.09 0.07 0.05 0.06 0.06 0.05 0.05 0.03 0.02
0.02 0.03 0.04 0.01 0.02 0.02 0.02 0.02 0.03 0.06 0.11 0.15 0.13 0.08 0.06 0.03 0.02 0.02 0.02 0.03 0.03 0.04 0.05 0.04 0.04 0.04 0.04 0.05 0.06 0.07 0.08 0.09 0.08 0.07 0.06 0.05 0.04 0.05 0.06 0.05 0.05 0.03 0.02
0.02 0.01 0.01 0.01 0.02 0.03 0.04 0.05 0.09 0.11 0.11 0.14 0.13 0.08 0.05 0.04 0.04 0.03 0.02 0.01 0.02 0.04 0.05 0.04 0.04 0.04 0.04 0.06 0.09 0.09 0.09 0.06 0.05 0.04 0.05 0.05 0.04 0.05 0.05 0.06 0.06 0.05 0.03
0.02 0.02 0.02 0.02 0.01 0.02 0.04 0.06 0.07 0.09 0.11 0.10 0.08 0.06 0.04 0.05 0.04 0.03 0.03 0.02 0.03 0.03 0.03 0.03 0.03 0.03 0.03 0.06 0.07 0.05 0.05 0.05 0.04 0.04 0.06 0.06 0.05 0.05 0.05 0.07 0.08 0.07 0.05
0.02 0.02 0.01 0.01 0.01 0.03 0.04 0.06 0.07 0.06 0.05 0.05 0.05 0.05 0.04 0.04 0.03 0.03 0.02 0.03 0.02 0.02 0.02 0.02 0.03 0.03 0.05 0.05 0.04 0.04 0.04 0.04 0.05 0.05 0.06 0.07 0.06 0.05 0.05 0.07 0.08 0.09 0.08
0.02 0.02 0.01 0.02 0.06 0.07 0.04 0.04 0.04 0.03 0.03 0.04 0.04 0.03 0.02 0.02 0.02 0.02 0.02 0.02 0.02 0.01 0.01 0.01 0.02 0.05 0.05 0.04 0.03 0.04 0.03 0.04 0.04 0.06 0.09 0.08 0.07 0.06 0.07 0.07 0.08 0.09 0.09
0.01 0.01 0.01 0.01 0.02 0.04 0.04 0.03 0.03 0.04 0.04 0.04 0.03 0.03 0.03 0.02 0.02 0.02 0.02 0.02 0.01 0.01 0.01 0.02 0.03 0.04 0.03 0.04 0.04 0.05 0.03 0.04 0.06 0.07 0.07 0.07 0.07 0.07 0.09 0.09 0.09 0.11 0.12
0.02 0.02 0.02 0.01 0.02 0.03 0.05 0.05 0.04 0.04 0.05 0.04 0.04 0.04 0.04 0.03 0.03 0.02 0.02 0.02 0.02 0.02 0.03 0.03 0.03 0.03 0.02 0.04 0.06 0.05 0.05 0.06 0.07 0.08 0.08 0.07 0.06 0.07 0.09 0.08 0.09 0.10 0.09
0.03 0.03 0.02 0.03 0.03 0.03 0.03 0.04 0.05 0.04 0.06 0.06 0.06 0.07 0.06 0.05 0.05 0.04 0.03 0.02 0.03 0.05 0.04 0.04 0.04 0.04 0.03 0.04 0.06 0.07 0.06 0.07 0.09 0.10 0.09 0.08 0.08 0.08 0.07 0.06 0.05 0.05 0.05
0.03 0.03 0.03 0.03 0.04 0.05 0.05 0.05 0.06 0.05 0.06 0.06 0.07 0.08 0.08 0.08 0.08 0.07 0.05 0.05 0.07 0.07 0.05 0.05 0.05 0.04 0.04 0.05 0.06 0.07 0.07 0.09 0.09 0.06 0.05 0.05 0.05 0.06 0.05 0.05 0.05 0.05 0.05
0.04 0.04 0.04 0.04 0.04 0.04 0.06 0.06 0.05 0.06 0.07 0.09 0.14 0.13 0.09 0.06 0.06 0.07 0.07 0.07 0.07 0.07 0.05 0.06 0.06 0.05 0.04 0.05 0.06 0.07 0.08 0.09 0.08 0.06 0.05 0.05 0.04 0.04 0.05 0.05 0.05 0.05 0.04
0.04 0.04 0.05 0.05 0.04 0.03 0.04 0.04 0.04 0.04 0.04 0.06 0.09 0.09 0.06 0.06 0.06 0.06 0.05 0.05 0.06 0.06 0.06 0.06 0.05 0.05 0.06 0.06 0.06 0.08 0.07 0.07 0.08 0.07 0.04 0.03 0.02 0.03 0.03 0.03 0.03 0.03 0.03
0.03 0.04 0.05 0.05 0.04 0.03 0.02 0.03 0.03 0.03 0.04 0.04 0.04 0.04 0.04 0.05 0.04 0.05 0.05 0.05 0.04 0.04 0.05 0.05 0.04 0.05 0.07 0.08 0.11 0.10 0.07 0.07 0.07 0.07 0.07 0.06 0.06 0.07 0.05 0.04 0.03 0.02 0.02
0.05 0.05 0.04 0.04 0.03 0.03 0.02 0.02 0.02 0.03 0.03 0.03 0.04 0.04 0.05 0.05 0.05 0.06 0.07 0.05 0.05 0.05 0.05 0.04 0.04 0.05 0.05 0.09 0.09 0.08 0.05 0.04 0.04 0.05 0.08 0.09 0.09 0.07 0.04 0.02 0.02 0.01 0.01
0.04 0.04 0.03 0.02 0.02 0.02 0.01 0.01 0.02 0.02 0.03 0.02 0.03 0.04 0.04 0.05 0.05 0.08 0.09 0.07 0.07 0.07 0.06 0.05 0.04 0.04 0.05 0.07 0.06 0.04 0.03 0.03 0.03 0.03 0.03 0.04 0.04 0.03 0.03 0.02 0.01 0.02 0.02
0.04 0.05 0.03 0.02 0.02 0.01 0.01 0.01 0.02 0.02 0.03 0.03 0.03 0.03 0.04 0.05 0.07 0.08 0.07 0.06 0.06 0.06 0.05 0.05 0.05 0.05 0.07 0.06 0.04 0.02 0.02 0.02 0.01 0.02 0.02 0.02 0.03 0.02 0.02 0.01 0.01 0.02 0.02
0.05 0.06 0.04 0.03 0.02 0.02 0.02 0.02 0.03 0.04 0.04 0.03 0.02 0.03 0.05 0.07 0.06 0.06 0.07 0.08 0.07 0.05 0.04 0.04 0.05 0.05 0.05 0.03 0.02 0.01 0.02 0.02 0.01 0.01 0.01 0.01 0.01 0.01 0.01 0.01 0.01 0.01 0.01
0.05 0.05 0.04 0.04 0.03 0.02 0.02 0.03 0.03 0.02 0.02 0.03 0.03 0.04 0.05 0.07 0.06 0.05 0.05 0.07 0.11 0.07 0.05 0.04 0.05 0.05 0.04 0.02 0.02 0.01 0.01 0.01 0.01 0.01 0.01 0.01 0.01 0.01 0.01 0.01 0.01 0.01 0.01
0.05 0.05 0.05 0.04 0.02 0.02 0.01 0.01 0.01 0.02 0.02 0.02 0.02 0.02 0.03 0.04 0.04 0.04 0.04 0.06 0.09 0.10 0.09 0.06 0.06 0.05 0.04 0.04 0.03 0.02 0.02 0.02 0.02 0.02 0.01 0.01 0.01 0.01 0.01 0.01 0.01 0.01 0.01
0.07 0.06 0.05 0.04 0.03 0.02 0.01 0.01 0.01 0.01 0.02 0.01 0.02 0.02 0.02 0.02 0.03 0.03 0.04 0.06 0.07 0.09 0.10 0.08 0.08 0.08 0.07 0.06 0.04 0.03 0.02 0.02 0.02 0.01 0.01 0.01 0.02 0.02 0.03 0.03 0.03 0.02 0.02
MSLP
1010.41 1010.59 1010.80 1011.02 1011.25 1011.49 1011.75 1012.04 1012.36 1012.73 1013.11 1013.49 1013.86 1014.17 1014.43 1014.63 1014.78 1014.89 1014.99 1015.11 1015.25 1015.44 1015.67 1015.94 1016.24 1016.55 1016.85 1017.15 1017.42 1017.68 1017.91 1018.12 1018.31 1018.47 1018.59 1018.66 1018.69 1018.66 1018.60 1018.50 1018.39 1018.30 1018.23
1009.92 1010.15 1010.40 1010.65 1010.89 1011.13 1011.39 1011.69 1012.05 1012.46 1012.91 1013.37 1013.81 1014.19 1014.49 1014.68 1014.80 1014.85 1014.88 1014.92 1015.01 1015.17 1015.41 1015.71 1016.05 1016.41 1016.76 1017.09 1017.39 1017.65 1017.88 1018.09 1018.28 1018.45 1018.59 1018.69 1018.74 1018.73 1018.65 1018.51 1018.34 1018.16 1018.00
1009.38 1009.65 1009.95 1010.24 1010.51 1010.77 1011.04 1011.36 1011.74 1012.19 1012.70 1013.23 1013.73 1014.16 1014.48 1014.68 1014.76 1014.76 1014.74 1014.72 1014.77 1014.91 1015.15 1015.47 1015.85 1016.25 1016.63 1016.97 1017.27 1017.53 1017.74 1017.95 1018.14 1018.33 1018.50 1018.64 1018.73 1018.75 1018.68 1018.54 1018.32 1018.08 1017.82
1008.83 1009.15 1009.51 1009.85 1010.16 1010.45 1010.73 1011.06 1011.45 1011.93 1012.47 1013.04 1013.58 1014.04 1014.37 1014.56 1014.62 1014.59 1014.52 1014.47 1014.50 1014.63 1014.87 1015.21 1015.61 1016.03 1016.42 1016.77 1017.05 1017.28 1017.48 1017.67 1017.86 1018.07 1018.28 1018.47 1018.62 1018.69 1018.66 1018.53 1018.31 1018.02 1017.70
1008.35 1008.71 1009.13 1009.53 1009.88 1010.19 1010.49 1010.81 1011.20 1011.67 1012.21 1012.78 1013.33 1013.79 1014.13 1014.31 1014.35 1014.30 1014.20 1014.13 1014.15 1014.28 1014.53 1014.88 1015.30 1015.72 1016.12 1016.45 1016.71 1016.91 1017.08 1017.25 1017.44 1017.67 1017.92 1018.17 1018.38 1018.52 1018.55 1018.46 1018.25 1017.96 1017.61
1008.00 1008.42 1008.89 1009.34 1009.72 1010.05 1010.34 1010.64 1010.99 1011.43 1011.93 1012.47 1012.99 1013.43 1013.75 1013.92 1013.94 1013.88 1013.77 1013.70 1013.71 1013.84 1014.10 1014.46 1014.88 1015.31 1015.69 1016.00 1016.23 1016.40 1016.54 1016.69 1016.88 1017.12 1017.40 1017.70 1017.99 1018.20 1018.30 1018.27 1018.11 1017.83 1017.49
1007.86 1008.31 1008.83 1009.32 1009.72 1010.04 1010.30 1010.56 1010.86 1011.23 1011.67 1012.14 1012.61 1013.01 1013.29 1013.43 1013.44 1013.36 1013.25 1013.18 1013.19 1013.33 1013.59 1013.95 1014.36 1014.78 1015.14 1015.43 1015.63 1015.77 1015.88 1016.01 1016.19 1016.44 1016.75 1017.09 1017.42 1017.70 1017.87 1017.91 1017.81 1017.60 1017.29
1007.97 1008.45 1008.99 1009.49 1009.89 1010.19 1010.41 1010.60 1010.82 1011.11 1011.46 1011.85 1012.25 1012.59 1012.82 1012.93 1012.92 1012.83 1012.71 1012.63 1012.64 1012.77 1013.02 1013.37 1013.77 1014.16 1014.50 1014.76 1014.95 1015.07 1015.16 1015.27 1015.44 1015.68 1016.00 1016.36 1016.72 1017.05 1017.28 1017.38 1017.36 1017.21 1016.97
1008.33 1008.84 1009.38 1009.87 1010.25 1010.49 1010.65 1010.77 1010.90 1011.10 1011.36 1011.67 1011.98 1012.25 1012.44 1012.51 1012.48 1012.37 1012.24 1012.14 1012.13 1012.24 1012.46 1012.79 1013.16 1013.52 1013.84 1014.09 1014.25 1014.36 1014.44 1014.54 1014.69 1014.92 1015.23 1015.58 1015.96 1016.30 1016.56 1016.72 1016.76 1016.68 1016.52
1008.94 1009.45 1009.98 1010.43 1010.76 1010.95 1011.03 1011.07 1011.12 1011.23 1011.41 1011.64 1011.88 1012.10 1012.23 1012.27 1012.20 1012.07 1011.92 1011.80 1011.76 1011.83 1012.01 1012.29 1012.62 1012.96 1013.26 1013.49 1013.65 1013.76 1013.84 1013.93 1014.06 1014.27 1014.54 1014.87 1015.22 1015.54 1015.81 1015.99 1016.08 1016.07 1016.00
1009.73 1010.23 1010.73 1011.13 1011.39 1011.51 1011.52 1011.49 1011.48 1011.52 1011.64 1011.81 1012.00 1012.17 1012.27 1012.27 1012.18 1012.02 1011.84 1011.69 1011.60 1011.62 1011.75 1011.98 1012.27 1012.57 1012.85 1013.08 1013.25 1013.36 1013.45 1013.54 1013.66 1013.84 1014.07 1014.34 1014.63 1014.91 1015.15 1015.33 1015.43 1015.48 1015.47
1010.61 1011.10 1011.55 1011.89 1012.08 1012.13 1012.08 1012.00 1011.95 1011.95 1012.04 1012.18 1012.34 1012.48 1012.56 1012.55 1012.44 1012.26 1012.05 1011.86 1011.73 1011.70 1011.77 1011.94 1012.19 1012.46 1012.72 1012.95 1013.13 1013.26 1013.36 1013.45 1013.56 1013.70 1013.88 1014.09 1014.31 1014.52 1014.70 1014.85 1014.95 1015.02 1015.07
1011.48 1011.94 1012.34 1012.62 1012.75 1012.75 1012.67 1012.57 1012.50 1012.50 1012.58 1012.72 1012.88 1013.02 1013.10 1013.08 1012.97 1012.78 1012.55 1012.33 1012.16 1012.08 1012.10 1012.22 1012.42 1012.66 1012.91 1013.14 1013.33 1013.48 1013.60 1013.70 1013.81 1013.92 1014.04 1014.18 1014.32 1014.45 1014.57 1014.66 1014.74 1014.81 1014.89
1012.22 1012.66 1013.02 1013.24 1013.33 1013.31 1013.22 1013.13 1013.08 1013.11 1013.22 1013.38 1013.57 1013.73 1013.82 1013.82 1013.72 1013.53 1013.30 1013.07 1012.88 1012.76 1012.74 1012.82 1012.98 1013.19 1013.42 1013.65 1013.86 1014.03 1014.17 1014.28 1014.38 1014.47 1014.55 1014.62 1014.69 1014.75 1014.80 1014.84 1014.88 1014.94 1015.02
1012.73 1013.16 1013.49 1013.69 1013.78 1013.76 1013.70 1013.66 1013.66 1013.74 1013.90 1014.11 1014.34 1014.53 1014.66 1014.69 1014.61 1014.45 1014.24 1014.02 1013.82 1013.70 1013.65 1013.70 1013.82 1014.01 1014.22 1014.44 1014.65 1014.84 1015.00 1015.12 1015.22 1015.30 1015.35 1015.39 1015.40 1015.41 1015.40 1015.39 1015.40 1015.43 1015.51
1012.97 1013.39 1013.72 1013.94 1014.04 1014.08 1014.09 1014.11 1014.20 1014.35 1014.58 1014.85 1015.12 1015.36 1015.53 1015.60 1015.57 1015.46 1015.29 1015.10 1014.93 1014.80 1014.75 1014.78 1014.88 1015.03 1015.22 1015.43 1015.63 1015.82 1015.99 1016.13 1016.23 1016.31 1016.36 1016.38 1016.38 1016.35 1016.31 1016.27 1016.25 1016.27 1016.33
1012.92 1013.36 1013.71 1013.97 1014.14 1014.25 1014.36 1014.48 1014.66 1014.91 1015.21 1015.54 1015.87 1016.16 1016.38 1016.50 1016.53 1016.48 1016.37 1016.23 1016.10 1016.00 1015.96 1015.98 1016.05 1016.18 1016.34 1016.52 1016.70 1016.88 1017.05 1017.20 1017.32 1017.42 1017.49 1017.52 1017.52 1017.49 1017.45 1017.41 1017.38 1017.38 1017.43
1012.64 1013.11 1013.51 1013.83 1014.09 1014.32 1014.53 1014.77 1015.06 1015.39 1015.77 1016.16 1016.55 1016.88 1017.15 1017.34 1017.43 1017.45 1017.41 1017.34 1017.27 1017.21 1017.19 1017.20 1017.26 1017.35 1017.47 1017.62 1017.77 1017.94 1018.10 1018.26 1018.40 1018.53 1018.63 1018.70 1018.73 1018.74 1018.72 1018.69 1018.67 1018.68 1018.71
1012.24 1012.75 1013.21 1013.61 1013.97 1014.31 1014.65 1015.00 1015.39 1015.81 1016.26 1016.71 1017.13 1017.52 1017.83 1018.08 1018.24 1018.34 1018.38 1018.39 1018.38 1018.37 1018.37 1018.39 1018.42 1018.49 1018.57 1018.67 1018.80 1018.94 1019.09 1019.26 1019.43 1019.59 1019.73 1019.86 1019.94 1020.00 1020.02 1020.03 1020.03 1020.04 1020.07
1011.86 1012.40 1012.91 1013.40 1013.86 1014.30 1014.75 1015.21 1015.69 1016.18 1016.68 1017.17 1017.63 1018.05 1018.41 1018.71 1018.94 1019.12 1019.24 1019.33 1019.39 1019.43 1019.46 1019.49 1019.52 1019.55 1019.60 1019.66 1019.75 1019.87 1020.02 1020.19 1020.38 1020.59 1020.78 1020.96 1021.11 1021.22 1021.29 1021.34 1021.36 1021.38 1021.41
1011.61 1012.17 1012.73 1013.28 1013.81 1014.35 1014.88 1015.41 1015.96 1016.50 1017.04 1017.56 1018.05 1018.49 1018.90 1019.25 1019.54 1019.79 1019.99 1020.16 1020.29 1020.38 1020.45 1020.49 1020.52 1020.54 1020.56 1020.59 1020.66 1020.76 1020.90 1021.08 1021.30 1021.54 1021.78 1022.01 1022.21 1022.37 1022.49 1022.57 1022.61 1022.64 1022.66
1011.58 1012.14 1012.72 1013.30 1013.88 1014.47 1015.05 1015.63 1016.21 1016.79 1017.34 1017.88 1018.38 1018.86 1019.29 1019.69 1020.05 1020.36 1020.64 1020.88 1021.07 1021.22 1021.33 1021.40 1021.44 1021.45 1021.46 1021.48 1021.53 1021.63 1021.77 1021.96 1022.20 1022.47 1022.74 1023.01 1023.25 1023.45 1023.60 1023.70 1023.76 1023.79 1023.80
1011.80 1012.33 1012.90 1013.48 1014.08 1014.67 1015.28 1015.87 1016.46 1017.04 1017.60 1018.14 1018.65 1019.15 1019.61 1020.05 1020.46 1020.84 1021.19 1021.49 1021.75 1021.96 1022.11 1022.22 1022.27 1022.30 1022.32 1022.35 1022.41 1022.51 1022.66 1022.87 1023.12 1023.40 1023.70 1023.99 1024.25 1024.46 1024.62 1024.73 1024.79 1024.81 1024.81
1012.21 1012.71 1013.24 1013.79 1014.37 1014.95 1015.53 1016.11 1016.69 1017.26 1017.81 1018.34 1018.86 1019.37 1019.86 1020.34 1020.80 1021.24 1021.65 1022.02 1022.34 1022.60 1022.81 1022.95 1023.05 1023.11 1023.16 1023.21 1023.29 1023.40 1023.57 1023.79 1024.05 1024.35 1024.65 1024.94 1025.20 1025.41 1025.57 1025.67 1025.72 1025.73 1025.71
1012.74 1013.18 1013.66 1014.17 1014.70 1015.24 1015.79 1016.34 1016.89 1017.43 1017.97 1018.50 1019.02 1019.54 1020.06 1020.57 1021.08 1021.57 1022.03 1022.46 1022.83 1023.15 1023.41 1023.61 1023.76 1023.86 1023.95 1024.04 1024.15 1024.29 1024.48 1024.71 1024.98 1025.27 1025.57 1025.85 1026.09 1026.29 1026.43 1026.51 1026.55 1026.55 1026.52
1013.26 1013.65 1014.08 1014.54 1015.02 1015.51 1016.02 1016.53 1017.04 1017.56 1018.08 1018.60 1019.13 1019.67 1020.21 1020.76 1021.30 1021.83 1022.34 1022.82 1023.25 1023.62 1023.94 1024.19 1024.39 1024.55 1024.69 1024.82 1024.97 1025.14 1025.35 1025.59 1025.86 1026.14 1026.42 1026.68 1026.90 1027.08 1027.20 1027.27 1027.30 1027.29 1027.25
Thickness
5806 5803 5801 5798 5793 5788 5784 5781 5777 5774 5771 5766 5762 5758 5755 5755 5754 5752 5751 5749 5747 5745 5743 5741 5740 5739 5737 5736 5736 5734 5732 5731 5732 5729 5727 5729 5730 5731 5731 5731 5730 5730 5729
5802 5802 5800 5798 5794 5790 5787 5783 5779 5776 5772 5769 5766 5762 5758 5756 5754 5753 5751 5750 5748 5746 5744 5742 5740 5739 5738 5736 5736 5734 5732 5731 5731 5727 5723 5720 5723 5728 5731 5730 5730 5730 5729
5803 5802 5800 5798 5796 5792 5790 5787 5782 5778 5774 5771 5766 5762 5758 5755 5753 5752 5751 5750 5748 5746 5744 5742 5741 5740 5738 5737 5736 5735 5733 5730 5729 5729 5725 5718 5716 5721 5727 5729 5730 5730 5729
5809 5804 5802 5800 5798 5797 5794 5789 5785 5780 5776 5772 5767 5762 5756 5752 5752 5752 5751 5750 5748 5747 5745 5743 5742 5740 5739 5738 5737 5737 5735 5732 5728 5728 5728 5726 5724 5719 5719 5725 5728 5729 5729
5812 5808 5807 5804 5802 5799 5795 5790 5785 5780 5776 5772 5768 5763 5759 5756 5754 5753 5751 5750 5749 5748 5746 5744 5743 5741 5741 5740 5739 5737 5736 5734 5731 5729 5727 5725 5724 5723 5719 5718 5722 5726 5728
5813 5811 5809 5806 5801 5799 5795 5790 5785 5781 5777 5772 5768 5764 5760 5756 5753 5752 5750 5750 5749 5748 5747 5745 5744 5742 5741 5741 5740 5738 5737 5735 5733 5732 5730 5727 5724 5722 5720 5718 5720 5721 5726
5812 5809 5807 5804 5800 5797 5794 5790 5785 5781 5777 5772 5767 5764 5760 5758 5755 5753 5752 5750 5749 5748 5748 5747 5745 5744 5743 5742 5741 5739 5738 5736 5735 5733 5731 5730 5729 5728 5725 5721 5720 5720 5723
5809 5807 5807 5803 5800 5796 5793 5790 5785 5781 5778 5773 5769 5765 5761 5759 5758 5756 5755 5753 5752 5751 5750 5748 5746 5745 5744 5743 5741 5740 5739 5738 5736 5735 5733 5731 5731 5730 5727 5724 5720 5717 5718
5807 5807 5806 5804 5800 5797 5794 5790 5785 5781 5778 5775 5772 5768 5764 5762 5760 5759 5756 5755 5754 5752 5750 5749 5747 5746 5745 5743 5742 5740 5739 5738 5737 5735 5734 5732 5731 5730 5729 5727 5724 5718 5714
5805 5804 5804 5803 5800 5798 5794 5789 5786 5782 5780 5777 5774 5772 5768 5765 5762 5760 5757 5755 5754 5753 5751 5749 5747 5746 5745 5743 5741 5740 5739 5737 5736 5735 5733 5732 5731 5730 5728 5727 5724 5722 5718
5801 5801 5801 5800 5798 5796 5792 5787 5784 5781 5778 5776 5774 5771 5768 5766 5763 5760 5758 5756 5755 5753 5751 5749 5747 5746 5744 5743 5741 5740 5738 5736 5735 5734 5732 5731 5730 5728 5727 5725 5724 5721 5719
5798 5797 5796 5794 5793 5790 5788 5785 5782 5780 5778 5776 5774 5770 5768 5765 5763 5760 5759 5757 5755 5753 5751 5749 5747 5745 5743 5742 5740 5738 5737 5735 5733 5731 5730 5729 5728 5727 5725 5724 5722 5720 5719
5792 5791 5789 5788 5786 5785 5784 5782 5780 5779 5777 5774 5771 5768 5765 5763 5761 5759 5758 5756 5754 5752 5750 5748 5745 5744 5743 5741 5739 5737 5735 5733 5731 5729 5727 5727 5726 5724 5724 5722 5720 5718 5717
5784 5784 5782 5782 5782 5780 5779 5778 5777 5777 5774 5772 5769 5765 5763 5761 5759 5758 5757 5755 5753 5750 5748 5746 5744 5743 5742 5740 5738 5736 5733 5731 5729 5727 5725 5724 5723 5722 5721 5720 5717 5715 5712
5777 5777 5777 5777 5777 5776 5776 5775 5773 5772 5771 5769 5766 5764 5762 5760 5757 5755 5754 5752 5750 5748 5746 5744 5742 5741 5740 5738 5735 5733 5730 5728 5725 5724 5722 5721 5720 5719 5718 5716 5714 5711 5707
5771 5772 5772 5772 5772 5773 5773 5771 5769 5768 5767 5765 5763 5761 5758 5756 5754 5752 5750 5747 5746 5744 5742 5741 5739 5738 5736 5735 5732 5730 5727 5724 5722 5720 5718 5716 5715 5713 5712 5710 5708 5706 5702
5766 5766 5766 5767 5768 5768 5768 5766 5765 5764 5761 5760 5758 5756 5753 5752 5750 5748 5745 5743 5741 5740 5738 5736 5735 5733 5731 5730 5728 5726 5723 5720 5718 5715 5713 5712 5710 5708 5706 5704 5702 5699 5696
5760 5762 5762 5761 5761 5762 5762 5761 5760 5758 5756 5755 5753 5752 5750 5747 5744 5742 5740 5738 5737 5735 5734 5732 5731 5728 5726 5724 5723 5721 5718 5716 5713 5711 5708 5706 5704 5703 5701 5698 5695 5692 5689
5757 5757 5758 5756 5755 5754 5754 5754 5753 5751 5750 5748 5747 5746 5745 5742 5739 5737 5735 5733 5732 5730 5729 5728 5726 5724 5721 5719 5717 5716 5713 5710 5707 5705 5703 5701 5699 5697 5695 5693 5689 5684 5681
5750 5750 5750 5749 5747 5747 5748 5747 5746 5745 5743 5743 5742 5741 5739 5737 5734 5732 5730 5729 5727 5725 5724 5722 5720 5718 5716 5713 5712 5710 5707 5703 5701 5698 5696 5694 5693 5691 5688 5686 5682 5677 5674
5742 5743 5743 5741 5740 5741 5741 5740 5739 5737 5738 5737 5736 5735 5733 5731 5729 5728 5726 5723 5721 5719 5717 5714 5712 5711 5709 5707 5705 5703 5701 5698 5695 5692 5689 5687 5685 5683 5680 5677 5674 5670 5667
5733 5733 5733 5733 5733 5734 5734 5733 5731 5731 5731 5731 5729 5727 5726 5725 5724 5722 5719 5717 5714 5712 5709 5707 5705 5703 5701 5700 5697 5695 5693 5691 5688 5684 5682 5679 5676 5674 5671 5668 5665 5662 5659
5723 5724 5724 5724 5724 5725 5726 5724 5723 5724 5724 5722 5720 5719 5719 5717 5716 5714 5712 5710 5707 5705 5702 5700 5698 5695 5693 5691 5690 5687 5685 5683 5680 5676 5673 5671 5668 5665 5662 5658 5655 5653 5650
5714 5715 5715 5715 5714 5715 5716 5716 5716 5716 5716 5713 5711 5710 5709 5708 5706 5705 5704 5702 5700 5697 5695 5693 5691 5688 5685 5683 5681 5678 5676 5673 5670 5667 5664 5661 5658 5655 5652 5648 5645 5642 5638
5705 5706 5705 5704 5704 5704 5706 5707 5708 5708 5706 5704 5702 5701 5700 5698 5696 5694 5692 5691 5690 5690 5688 5687 5685 5682 5678 5674 5673 5671 5668 5666 5663 5659 5655 5651 5648 5645 5641 5637 5634 5631 5628
5697 5696 5696 5696 5695 5695 5696 5697 5698 5698 5697 5695 5693 5692 5691 5689 5688 5686 5682 5679 5679 5679 5678 5678 5676 5673 5670 5667 5665 5662 5660 5657 5654 5651 5646 5641 5638 5634 5630 5627 5623 5619 5616